Total_Precipitation_Accumulation
1.17 1.35 1.83 2.41 2.82 3.28 3.60 3.56 3.38 3.44 3.52 3.54 3.35 3.52 3.73 4.03 4.30 4.20 4.07 3.99 3.90 3.86 3.87 3.90 3.89 3.77 3.68 3.52 3.33 3.19 3.07 2.85 2.65 2.58 2.28 1.93 1.69 1.62 1.58 1.63 1.70 1.70 1.70
1.24 1.52 1.97 2.30 2.71 3.05 3.22 3.49 3.60 3.64 3.43 3.71 3.95 4.17 4.46 4.58 4.88 5.15 5.19 5.04 4.78 4.55 4.34 4.29 4.10 3.80 3.61 3.47 3.28 3.13 2.97 2.71 2.55 2.50 2.48 2.09 1.78 1.49 1.32 1.41 1.43 1.49 1.63
1.51 1.80 2.10 2.26 2.51 2.92 3.18 3.47 3.75 3.85 3.74 4.14 4.63 5.04 5.31 5.29 5.36 5.43 5.46 5.42 5.01 4.62 4.32 4.03 3.87 3.69 3.52 3.35 3.27 3.15 3.02 2.77 2.58 2.47 2.60 2.47 2.15 1.76 1.56 1.42 1.43 1.51 1.57
1.40 1.69 1.97 2.33 2.41 2.72 3.00 3.25 3.60 3.98 4.27 4.68 5.13 5.66 5.91 6.01 5.90 5.61 5.36 5.04 4.64 4.27 3.85 3.61 3.61 3.45 3.24 3.05 2.84 2.71 2.67 2.60 2.50 2.44 2.33 2.30 2.23 2.07 1.86 1.65 1.65 1.67 1.64
1.38 1.53 1.67 2.00 2.26 2.54 2.80 3.09 3.41 3.82 4.45 5.21 5.73 6.11 6.38 6.29 5.85 5.36 4.76 4.32 3.99 3.69 3.42 3.22 3.23 3.13 2.88 2.66 2.41 2.22 2.14 2.14 2.21 2.23 2.20 2.14 2.08 1.91 1.81 1.73 1.65 1.62 1.61
1.51 1.61 1.73 2.00 2.18 2.30 2.55 2.89 3.30 3.60 4.11 4.83 5.46 5.75 5.93 5.84 5.42 4.77 4.22 3.84 3.45 3.11 2.81 2.54 2.43 2.31 2.16 2.05 1.95 1.84 1.78 1.78 1.89 1.96 1.91 1.90 1.91 1.87 1.86 1.80 1.66 1.64 1.71
1.65 1.64 1.66 1.81 2.01 2.11 2.30 2.58 2.88 3.26 3.58 3.98 4.57 4.68 4.71 4.53 4.11 3.82 3.58 3.20 2.80 2.47 2.19 1.99 1.87 1.81 1.76 1.71 1.69 1.65 1.59 1.50 1.54 1.57 1.61 1.62 1.59 1.63 1.75 1.88 1.87 1.78 1.66
1.46 1.48 1.47 1.70 1.93 2.12 2.26 2.38 2.57 2.92 3.22 3.32 3.45 3.40 3.32 3.25 3.06 2.82 2.54 2.29 2.08 1.94 1.83 1.68 1.57 1.52 1.55 1.55 1.57 1.51 1.40 1.31 1.28 1.24 1.27 1.32 1.32 1.45 1.64 1.76 1.93 1.96 1.75
1.32 1.37 1.40 1.52 1.71 1.96 2.07 2.14 2.19 2.33 2.35 2.37 2.40 2.40 2.37 2.24 2.17 2.09 1.88 1.72 1.60 1.49 1.47 1.44 1.40 1.32 1.26 1.22 1.18 1.15 1.15 1.17 1.17 1.11 1.09 1.11 1.14 1.25 1.39 1.51 1.72 1.91 1.84
1.34 1.34 1.39 1.46 1.44 1.50 1.59 1.69 1.80 1.92 1.89 1.81 1.72 1.75 1.74 1.64 1.53 1.44 1.36 1.27 1.20 1.15 1.16 1.13 1.10 1.11 1.12 1.04 0.96 0.92 0.95 0.98 1.03 1.05 1.00 0.98 0.99 1.03 1.09 1.19 1.34 1.55 1.69
1.40 1.32 1.32 1.32 1.24 1.18 1.18 1.29 1.42 1.57 1.59 1.49 1.45 1.47 1.44 1.37 1.26 1.18 1.12 1.07 1.02 0.98 0.94 0.94 0.92 0.90 0.89 0.88 0.90 0.87 0.88 0.94 0.95 0.95 0.93 0.91 0.91 0.97 0.96 1.01 1.12 1.26 1.42
1.37 1.27 1.23 1.28 1.21 1.13 1.06 1.13 1.20 1.17 1.23 1.24 1.29 1.34 1.28 1.24 1.18 1.12 1.07 1.03 0.93 0.87 0.85 0.86 0.82 0.75 0.72 0.77 0.83 0.86 0.85 0.94 0.94 0.92 0.92 0.88 0.88 0.93 0.93 0.95 1.01 1.14 1.31
1.48 1.34 1.23 1.20 1.19 1.12 1.09 1.10 1.13 1.06 1.04 1.00 1.00 1.07 1.08 1.07 1.04 0.97 0.92 0.88 0.85 0.83 0.81 0.75 0.73 0.72 0.68 0.69 0.70 0.72 0.74 0.80 0.86 0.87 0.92 0.93 0.93 0.91 0.90 0.93 1.00 1.12 1.25
1.47 1.31 1.24 1.19 1.12 1.08 1.08 1.07 1.03 0.94 0.90 0.87 0.90 0.95 0.95 0.97 1.00 0.93 0.86 0.82 0.77 0.74 0.72 0.65 0.63 0.69 0.68 0.62 0.59 0.60 0.65 0.70 0.71 0.72 0.85 0.91 0.92 0.92 0.98 1.00 1.04 1.11 1.27
1.49 1.42 1.31 1.19 1.04 0.96 0.96 0.95 0.93 0.87 0.83 0.84 0.88 0.96 0.91 0.88 0.95 0.98 0.88 0.79 0.75 0.71 0.71 0.65 0.60 0.63 0.63 0.57 0.57 0.57 0.57 0.61 0.61 0.63 0.71 0.78 0.80 0.81 0.87 0.89 0.98 1.11 1.26
1.72 1.64 1.48 1.31 1.14 1.02 0.98 0.96 0.93 0.82 0.76 0.79 0.89 0.97 0.97 0.95 0.96 1.00 0.96 0.89 0.82 0.79 0.75 0.69 0.64 0.62 0.59 0.60 0.54 0.52 0.53 0.57 0.63 0.70 0.72 0.68 0.68 0.66 0.64 0.71 0.81 0.97 1.17
1.77 1.62 1.49 1.35 1.23 1.17 1.07 1.05 1.00 0.87 0.84 0.84 0.86 0.93 0.96 1.01 1.01 0.99 0.97 0.95 0.92 0.90 0.80 0.70 0.66 0.63 0.56 0.51 0.42 0.41 0.46 0.58 0.68 0.76 0.74 0.64 0.61 0.70 0.71 0.71 0.74 0.85 0.99
1.91 1.82 1.62 1.47 1.30 1.15 1.05 1.00 0.95 0.87 0.89 0.89 0.86 0.82 0.82 0.85 0.84 0.89 0.96 0.94 0.90 0.84 0.78 0.70 0.64 0.60 0.46 0.39 0.37 0.40 0.42 0.50 0.54 0.58 0.66 0.76 0.78 0.71 0.72 0.71 0.81 0.90 1.00
1.82 1.76 1.62 1.51 1.39 1.22 1.08 1.00 0.95 0.90 0.85 0.83 0.78 0.70 0.66 0.69 0.70 0.77 0.87 0.94 0.89 0.79 0.72 0.66 0.63 0.59 0.47 0.40 0.38 0.39 0.44 0.48 0.45 0.42 0.48 0.55 0.59 0.59 0.67 0.77 0.92 0.98 1.09
1.36 1.35 1.31 1.27 1.20 1.09 0.99 0.98 0.96 0.86 0.78 0.71 0.64 0.59 0.58 0.61 0.64 0.69 0.79 0.85 0.85 0.74 0.62 0.55 0.55 0.52 0.50 0.42 0.35 0.35 0.38 0.45 0.43 0.45 0.52 0.52 0.46 0.49 0.62 0.80 0.99 1.13 1.18
1.15 1.09 1.06 1.08 1.05 0.96 0.94 0.96 0.91 0.83 0.66 0.55 0.54 0.56 0.59 0.62 0.61 0.69 0.77 0.74 0.68 0.67 0.60 0.55 0.52 0.47 0.40 0.33 0.28 0.29 0.32 0.37 0.42 0.48 0.56 0.59 0.51 0.47 0.53 0.71 0.90 1.07 1.10
1.19 1.10 1.04 0.99 0.91 0.87 0.92 0.95 0.86 0.68 0.55 0.52 0.56 0.60 0.60 0.58 0.56 0.67 0.74 0.66 0.64 0.63 0.61 0.59 0.52 0.44 0.35 0.28 0.22 0.19 0.20 0.24 0.41 0.56 0.55 0.54 0.52 0.49 0.55 0.70 0.87 1.00 1.16
1.12 1.07 0.98 0.89 0.79 0.74 0.78 0.81 0.68 0.50 0.46 0.52 0.60 0.62 0.59 0.66 0.65 0.61 0.60 0.59 0.62 0.54 0.49 0.49 0.46 0.42 0.37 0.31 0.23 0.18 0.17 0.21 0.33 0.49 0.53 0.51 0.49 0.60 0.80 0.92 1.01 1.15 1.36
0.93 0.84 0.80 0.75 0.67 0.60 0.57 0.54 0.44 0.43 0.48 0.56 0.58 0.56 0.60 0.71 0.70 0.59 0.48 0.46 0.47 0.44 0.40 0.42 0.40 0.40 0.40 0.31 0.26 0.26 0.26 0.28 0.33 0.44 0.57 0.62 0.66 0.84 1.04 1.19 1.27 1.36 1.41
0.73 0.66 0.65 0.61 0.52 0.47 0.43 0.37 0.34 0.38 0.48 0.51 0.54 0.54 0.57 0.62 0.64 0.53 0.40 0.38 0.33 0.27 0.27 0.29 0.31 0.36 0.35 0.25 0.23 0.26 0.28 0.31 0.35 0.42 0.61 0.75 0.80 0.93 1.09 1.23 1.31 1.35 1.34
0.60 0.58 0.54 0.51 0.45 0.43 0.39 0.35 0.31 0.34 0.45 0.49 0.46 0.41 0.44 0.46 0.45 0.45 0.42 0.28 0.17 0.13 0.12 0.13 0.17 0.19 0.20 0.17 0.17 0.21 0.26 0.30 0.37 0.49 0.74 0.84 0.83 0.89 0.99 1.11 1.22 1.21 1.17